Regional Weather Roundup
Issued by NWS Wakefield, VA

Home | Current Version | Previous Version | Text Only | Print | Product List | Glossary Off
Versions: 1 2 3 4 5 6 7 8 9 10 11 12 13 14 15 16 17 18 19 20 21 22 23 24 25 26 27 28

000
ASUS41 KAKQ 301810
RWRAKQ

REGIONAL WEATHER ROUNDUP
NATIONAL WEATHER SERVICE WAKEFIELD VA
200 PM EDT THU OCT 30 2014

Note: "fair" indicates few or no clouds below 12,000 feet with no
significant weather and/or obstructions to visibility. * = Denotes
station may not report precipitation (e.g., rain,snow,etc.),
thunder or fog.

VAZ042-051-052>054-056-301900-
NORTHERN VIRGINIA

CITY           SKY/WX    TMP DP  RH WIND       PRES   REMARKS
WASH NATIONAL  MOSUNNY   60  36  40 N7G18     30.04F
DULLES         MOSUNNY   57  37  47 N7        30.04F
FORT BELVOIR   SUNNY     60  36  40 VRB6      30.04F
QUANTICO       MOSUNNY   61  34  36 N12       30.05F
FREDERICKSBRG* SUNNY     61  37  41 N8        30.03F
STAFFORD*      SUNNY     59  33  37 N9        30.07F
WARRENTON      PTSUNNY   61  43  52 N7        30.03F
CULPEPER*      MOSUNNY   61  36  39 N9        30.05F
MANASSAS*      MOSUNNY   57  37  47 N8        30.05F
LEESBURG*      CLOUDY    55  41  58 NW10      30.05F
WINCHESTER     CLOUDY    54  30  40 N7        30.05F
FRONT ROYAL*   CLOUDY    54  32  43 NW7       30.05F
LURAY*         CLOUDY    54  36  50 N6        30.06F
$$

VAZ048-049-060>072-079>083-301900-
CENTRAL AND SOUTH CENTRAL VIRGINIA...AND NORTH CENTRAL NORTH CAROLINA

CITY           SKY/WX    TMP DP  RH WIND       PRES   REMARKS
RICHMOND       MOSUNNY   64  39  39 NW8       30.02F
CHESTERFIELD*  PTCLDY    63  36  36 NW3       30.04F
PETERSBURG*    MOSUNNY   61  37  41 N6        30.02F
HANOVER        SUNNY     61  37  41 W7        30.04F
TAPPAHANNOCK*  SUNNY     62  32  32 NW6       30.03F
CHARLOTTSVILLE PTSUNNY   58  34  40 N12       30.05F
ORANGE*        MOSUNNY   55  34  44 W7        30.06F
LOUISA*        CLOUDY    57  37  47 NW8       30.03F
FARMVILLE*     PTSUNNY   61  39  44 NE5       30.01F
CREWE*         MOCLDY    62  41  46 N3        30.02F
FORT PICKETT*  MOCLDY    61  41  49 NE5       30.02F
LUNENBURG*     CLOUDY    61  40  46 CALM      30.02F
SOUTH HILL*    PTSUNNY   66  43  42 NE5       30.06F
LAWRENCEVILLE* MOCLDY    61  44  52 N3        30.00F
ROANOKE RAPIDS CLEAR     63  41  45 CALM      30.00F
RALEIGH        MOSUNNY   65  40  39 CALM      30.01F
$$

VAZ088>098-301900-
SOUTHEAST VIRGINIA

CITY           SKY/WX    TMP DP  RH WIND       PRES   REMARKS
NORFOLK        SUNNY     62  48  60 N12       30.01F
VIRGINIA BEACH MOSUNNY   66  51  58 N12       29.99F
NORFOLK NAVAL  MOSUNNY   64  47  53 N15       30.02F
WEST POINT*    SUNNY     65  37  36 NW3       30.03F
NEWPORT NEWS   MOSUNNY   64  45  49 E8        30.01F
LANGLEY AFB    SUNNY     62  48  60 NE10      30.01F
FORT EUSTIS    SUNNY     64  45  51 NW8       29.99F
WILLIAMSBURG*  SUNNY     66  48  52 CALM      30.02F
HR EXEC AP*    PTCLDY    63  46  55 CALM      30.02F
FRANKLIN*      MOSUNNY   63  45  51 CALM      30.00F
WAKEFIELD      SUNNY     64  43  46 N8        30.01F
$$

VAZ020-022-025-037-045-301900-
WEST CENTRAL AND SOUTHWEST VIRGINIA

CITY           SKY/WX    TMP DP  RH WIND       PRES   REMARKS
STAUNTON*      CLOUDY    52  37  55 NE7       30.08F
HOT SPRINGS VA MOSUNNY   44  32  63 W8        30.01F
LYNCHBURG      SUNNY     59  35  40 VRB5      30.03F
DANVILLE       SUNNY     66  37  34 CALM      30.02F
SOUTH BOSTON*  NOT AVBL
MARTINSVILLE   SUNNY     63  36  36 NW5       30.05F
ROANOKE        MOSUNNY   58  33  39 VRB3      30.05F
BLACKSBURG     SUNNY     55  39  54 W6        30.06F
DUBLIN*        MOSUNNY   53  38  55 NE5       30.06F
MARION*        MOSUNNY   55  37  50 SW6       30.07F
HILLSVILLE*    SUNNY     51  36  57 CALM      30.04F
RICHLANDS*     PTCLDY    51  38  59 NW6       30.06F
WISE*          SUNNY     52  34  50 W6        30.08F
ABINGDON*      CLOUDY    55  41  58 W7        30.06F
$$

MDZ021>025-VAZ099-100-301900-
SOUTHERN MARYLAND AND THE DELMARVA PENINSULA

CITY           SKY/WX    TMP DP  RH WIND       PRES   REMARKS
PATUXENT RIVER MOSUNNY   59  41  51 NE12G21   30.02F
BAY BRIDGE APT   N/A     59  37  44 N8        30.03F
LEONARDTOWN    PTSUNNY   59  34  38 N8        30.03F
DOVER          PTSUNNY   57  40  51 N3        29.99F
GEORGETOWN     SUNNY     60  39  45 W9        30.01F
EASTON         MOSUNNY   59  41  51 N10       30.05F
CAMBRIDGE      SUNNY     59  37  44 NW5       30.02S
SALISBURY      SUNNY     64  39  39 NW8       30.00F
OCEAN CITY     PTSUNNY   60  43  53 NE6       29.99F
WALLOPS ISLAND MOSUNNY   64  43  46 NE9       30.00F
ACCOMACK*      SUNNY     61  43  51 NW12      30.01F
$$

NCZ012>017-030>032-301900-
EASTERN NORTH CAROLINA

CITY           SKY/WX    TMP DP  RH WIND       PRES   REMARKS
ELIZABETH CITY SUNNY     68  44  42 NE10      29.99F
AHOSKIE*       NOT AVBL
EDENTON*       MOSUNNY   66  51  57 N9        29.99F
CURRITUCK*     SUNNY     65  45  49 NE7       30.00F
KILL DEVIL HLS PTSUNNY   66  47  51 N7        29.97F
MANTEO         CLOUDY    64  47  52 N13       29.98F
CAPE HATTERAS  SUNNY     65  51  60 NE14G26   29.95F
TARBORO*       MOCLDY    65  49  56 NE6       30.01F
GOLDSBORO      SUNNY     67  48  50 NE10      29.98F
WASHINGTON     MOSUNNY   65  49  55 NE7       29.99F
GREENVILLE     SUNNY     66  46  48 NE8       30.01F
NEW BERN       MOSUNNY   68  52  56 NE8       29.99F
WILMINGTON     SUNNY     70  51  51 N13       29.95F
$$

VAZ048-301900-
ELSEWHERE

CITY           SKY/WX    TMP DP  RH WIND       PRES   REMARKS
HARRISBURG PA  PTSUNNY   53  39  59 NW12      30.02F
BALTIMORE      PTSUNNY   57  38  48 NW9       30.02F
ANNAPOLIS      PTSUNNY   59  39  47 N13       30.02F
ANDREWS AFB    MOSUNNY   57  37  47 VRB6      30.02F
WILMINGTON DE  PTSUNNY   58  39  49 NW5       30.01F
PHILADELPHIA   PTSUNNY   59  38  45 NW8G17    30.00F
WILDWOOD NJ*   SUNNY     57  41  54 NW8       30.01F
ATLANTIC CITY  PTSUNNY   59  40  49 NW8       29.98F
HENDERSON NC   MOSUNNY   63  40  43 N3        30.02F
GREENSBORO     MOSUNNY   63  36  36 VRB5      30.02F
ROCKY MOUNT    PTSUNNY   66  44  45 NE7       30.00F
FAYETTEVILLE   SUNNY     70  45  40 N8        29.98F
CHARLOTTE      SUNNY     65  32  29 CALM      30.02F
$$

VAZ100-301900-
MARINE

STATION/POSITION TIME  TEMP    WIND        PRES    WAVE   SWELL
                       AIR SEA DIR/SP/G            HT/PER HT/PER
                 (UTC) (F)     (DEG/KT/KT) (MB)    (FT/S) (FT/S)
44066 TX TWR #4  1800   59 65  280/ 12/ 14 1013.9F   2/ 8   2/ 8
CAPE MAY NJ      1800   59 65  310/  5/  8 1015.5F
LEWES DE         1800   55 61  350/  7/  8 1015.9F
15NM E FENWICK I 1800   57 64              1015.5F   2/ 4
OCEAN-CITY-INLET 1800   59 62   20/  6/  8 1015.4F
WACHAPREAGUE VA  1800   63 63  320/  4/  8 1015.8F
THOMAS POINT MD  1800   56 62   10/  7/  9 1017.6F
GOOSES REEF MD   1800   55      50/  8/  8 1017.3F
COVE POINT MD    1800   54      40/ 11/ 12 1016.6F
SOLOMONS ISLAND  1800      63                N/A
BISHOPS HEAD MD  1800   58 61  310/  7/ 14 1016.1F
PINEY POINT MD   1800          320/ 10/ 11   N/A
POTOMAC MD       1800   58     340/  6/ 10 1016.2F
CAMBRIDGE MD     1800   56 60  320/  7/ 10 1016.3F
LEWISETTA VA     1800   58 63  340/  6/  9 1016.3F
RAPPAHANNOCK LGT 1800          340/ 16/ 18 1016.8S
STINGRAY PT      1800   58      30/ 14/ 16 1017.1S
YORK RVR RNG VA  1800   59      70/ 11/ 13 1015.7F
YORKTOWN VA      1800   61 64   70/  4/  4 1015.8F
JAMESTOWN VA     1800   61      30/  2/  4   N/A
DOMINION TERM VA 1800   61      30/  3/  5 1016.1F
KIPTOPEKE VA     1800      67  350/ 11/ 15   N/A
CHES BAY BRIDGE  1800   59 64  350/ 14/ 16 1015.6F
CHESAPEAKE LGHT  1700   60     350/  8/  9 1016.9F
WILLOUBY STN VA  1800   59      30/ 14/ 16 1014.8F
S CRANEY ISL VA  1800          360/  8/ 13 1015.8F
CAPE HENRY BUOY  1800      65                N/A     3/ 5
1ST LANDING BUOY 1800   60     350/ 14/ 17 1015.8F
CAPE CHARLES BUO 1800      65                N/A     2/ 4   2/ 4
64NM E OF VA BCH 1800   63 67   20/ 14/ 16 1014.6F   3/ 6   2/ 7
DUCK PIER NC     1800   62 67   10/ 12/ 16 1014.5F
44100 DUCK FRF   1800      67                N/A     4/ 5
OREGON INLET NC  1800   65 67   20/ 14/ 16 1014.7F
HATTERAS NC      1800   64 69   20/ 18/ 22 1014.6S
DIAMOND SHLS NC  1700   67     360/ 17/ 21 1014.2F   4/ 5
CAPE LOOKOUT NC  1700   64      20/ 16/ 22 1014.8F
$$



USA.gov is the U.S. government's official web portal to all federal, state and local government web resources and services.